Hourly Data Report for April 23, 2021

OTTAWA INTL A
ONTARIO
Current Station Operator: NAVCAN

45°19'00.000" N
75°40'00.000" W
114.90 m
6106001
71628
YOW

Download Data

Hourly Data (April 2021)
Hourly Data Report for April 23, 2021
TIME
LST
Temp Definition
°C
Dew Point Definition
°C
Rel Hum Definition
%
Precip. Amount Definition
mm

Wind Dir Definition
10's deg

Wind Spd Definition
km/h
Visibility Definition
km
Stn Press Definition
kPa
Hmdx Definition


Wind Chill Definition


Weather Definition


00:00 0.2 -6.5 61   24 15 24.1 99.50     LegendNANA
01:00 0.6 -5.8 62   25 18 24.1 99.50     Clear
02:00 0.5 -5.1 66   25 19 24.1 99.52     LegendNANA
03:00 0.6 -4.7 68   25 14 24.1 99.54     LegendNANA
04:00 1.1 -4.6 66   23 18 24.1 99.56     Mostly Cloudy
05:00 1.2 -4.4 66   24 13 24.1 99.56     LegendNANA
06:00 1.6 -3.7 68   26 5 24.1 99.60     LegendNANA
07:00 5.0 -3.3 55   27 23 24.1 99.64     Mostly Cloudy
08:00 6.1 -4.0 48   27 33 24.1 99.63     LegendNANA
09:00 7.9 -3.1 46   27 24 24.1 99.63     LegendNANA
10:00 9.5 -3.5 40   27 26 24.1 99.61     Clear
11:00 11.3 -3.2 36   28 25 24.1 99.57     LegendNANA
12:00 12.8 -3.7 32   29 28 24.1 99.50     LegendNANA
13:00 13.8 -4.5 28   28 35 24.1 99.47     Mainly Clear
14:00 14.9 -4.6 26   27 31 24.1 99.43     LegendNANA
15:00 15.3 -4.9 24   27 27 24.1 99.37     LegendNANA
16:00 15.8 -5.2 23   29 35 24.1 99.35     Clear
17:00 15.7 -4.3 25   28 31 24.1 99.35     LegendNANA
18:00 15.1 -4.1 26   27 22 24.1 99.38     LegendNANA
19:00 12.9 -3.9 31   27 15 24.1 99.41     Clear
20:00 11.9 -4.0 32   25 8 24.1 99.48     LegendNANA
21:00 10.1 -3.7 38   24 9 24.1 99.50     LegendNANA
22:00 9.7 -2.8 42   24 15 24.1 99.50     Clear
23:00 9.1 -1.7 47   25 17 24.1 99.51     LegendNANA

Notes on Data Quality.

Legend

  • E = Estimated
  • M = Missing
  • NA = Not Available*
  • [empty] = Indicates an unobserved value
Date modified: